Flag for Myanmar Weather past 2 weeks in Yangon, Myanmar

Now
75 °F

Clear.


Feels Like: 77 °F
Forecast: 65 / 88 °F
Wind: 6 mph from Northeast

Location: Rangoon Airport

Current Time: Dec 23, 2014 at 10:28:53 AM

Latest Report: Dec 23, 2014 at 10:00 AM


Visibility: 4 mi

Pressure: 30.01 "Hg

Humidity: 61%

Dew point: 61 °F

Location of YangonLocation

Historic Weather in Yangon — Graph

°F

Yangon temperature yesterday

Maximum temperature yesterday: 88 °F (at 1:00 PM)
Minimum temperature yesterday: 66 °F (at 5:30 AM)
Average temperature yesterday: 77 °F

Past Weeks' High & Low Weather Summary

 TemperatureHumidityPressure
High102 °F (Dec 16, 7:00 PM)100% (Dec 10, 7:00 AM)30.07 "Hg (Dec 10, 7:00 AM)
Low63 °F (Dec 23, 7:30 AM)38% (Dec 13, 1:00 PM)29.83 "Hg (Dec 8, 2:00 PM)
Average80 °F72%29.94 "Hg
* Reported Dec 8 8:30 AM — Dec 23 9:00 AM, Yangon, Weather by CustomWeather, © 2014

Note: Actual official high and low records may vary slightly from our data, if they occured in-between our weather recording intervals... More about our weather records

Advertising

Yangon weather history for previous 24 hours

 ConditionsComfort  
Time TempWeatherWind HumidityBarometerVisibility
9:00 AM
Dec 23
70 °FClear.5 mph73%30.01 "Hg4 mi
8:30 AM66 °FClear.5 mph83%29.98 "Hg4 mi
8:00 AM64 °FClear.5 mph83%29.98 "Hg4 mi
7:30 AM63 °FClear.5 mph88%29.95 "Hg4 mi
7:00 AM64 °FFog.6 mph88%29.95 "Hg3 mi
6:30 AM64 °FFog.6 mph88%29.95 "Hg3 mi
6:00 AM66 °FClear.6 mph83%29.92 "Hg4 mi
5:30 AM66 °FClear.6 mph83%29.92 "Hg4 mi
5:00 AM66 °FClear.3 mph83%29.92 "Hg4 mi
12:30 AM70 °FClear.3 mph78%29.95 "Hg4 mi
12:00 AM70 °FClear.3 mph78%29.95 "Hg4 mi
11:30 PM
Dec 22
72 °FClear.No wind78%29.95 "Hg4 mi
11:00 PM72 °FClear.3 mph78%29.98 "Hg4 mi
10:30 PM72 °FClear.3 mph78%29.98 "Hg4 mi
10:00 PM73 °FSnow. Overcast.3 mph74%29.98 "Hg4 mi
9:30 PM73 °FSnow. Overcast.3 mph74%29.98 "Hg4 mi
9:00 PM73 °FSnow. Overcast.3 mph74%29.98 "Hg4 mi
8:30 PM73 °FSnow. Haze.6 mph74%29.95 "Hg4 mi
8:00 PM75 °FSnow. Haze.6 mph65%29.95 "Hg4 mi
7:30 PM77 °FSnow. Haze.6 mph61%29.92 "Hg4 mi
6:30 PM79 °FSnow. Haze.6 mph61%29.89 "Hg4 mi
6:00 PM81 °FSnow. Haze.6 mph54%29.89 "Hg4 mi
5:30 PM82 °FSunny.6 mph48%29.86 "Hg4 mi
5:00 PM84 °FClear.6 mph45%29.86 "Hg5 mi
4:30 PM84 °FClear.6 mph45%29.86 "Hg5 mi
4:00 PM84 °FClear.6 mph51%29.86 "Hg5 mi
3:30 PM84 °FClear.6 mph51%29.86 "Hg5 mi
3:00 PM86 °FPassing clouds.6 mph46%29.86 "Hg5 mi
2:30 PM88 °FScattered clouds.6 mph52%29.86 "Hg5 mi
2:00 PM88 °FScattered clouds.6 mph52%29.86 "Hg5 mi
1:30 PM88 °FScattered clouds.6 mph52%29.89 "Hg5 mi
1:00 PM88 °FScattered clouds.6 mph52%29.89 "Hg5 mi
12:30 PM84 °FScattered clouds.6 mph62%29.92 "Hg5 mi
12:00 PM82 °FScattered clouds.6 mph62%29.92 "Hg5 mi
11:30 AM81 °FScattered clouds.6 mph70%29.95 "Hg5 mi
11:00 AM79 °FClear.6 mph70%29.95 "Hg5 mi
10:00 AM77 °FClear.7 mph79%29.98 "Hg4 mi
Weather by CustomWeather, © 2014

See weather overviewHow to use our weather pages